TimeEST,TemperatureF,Dew PointF,Humidity,Sea Level PressureIn,VisibilityMPH,Wind Direction,Wind SpeedMPH,Gust SpeedMPH,PrecipitationIn,Events,Conditions,WindDirDegrees,DateUTC
12:53 AM,44.1,28.9,55,29.97,10.0,SSW,12.7,-,N/A,,Clear,210,2013-01-20 05:53:00
1:53 AM,43.0,30.0,60,29.97,10.0,SW,10.4,-,N/A,,Clear,220,2013-01-20 06:53:00
2:53 AM,45.0,32.0,60,29.98,10.0,SSW,12.7,-,N/A,,Clear,210,2013-01-20 07:53:00
3:53 AM,45.0,34.0,65,30.01,10.0,West,9.2,-,N/A,,Mostly Cloudy,260,2013-01-20 08:53:00
4:53 AM,44.1,30.9,60,30.04,10.0,West,17.3,31.1,N/A,,Scattered Clouds,270,2013-01-20 09:53:00
5:53 AM,41.0,28.0,60,30.06,10.0,WNW,6.9,17.3,N/A,,Clear,300,2013-01-20 10:53:00
6:53 AM,37.0,16.0,42,30.11,10.0,West,10.4,17.3,N/A,,Clear,280,2013-01-20 11:53:00
7:53 AM,34.0,7.0,32,30.15,10.0,NW,10.4,20.7,N/A,,Clear,320,2013-01-20 12:53:00
8:53 AM,32.0,8.1,37,30.19,10.0,WNW,10.4,25.3,N/A,,Clear,300,2013-01-20 13:53:00
9:53 AM,32.0,10.0,40,30.24,10.0,WNW,10.4,24.2,N/A,,Clear,290,2013-01-20 14:53:00
10:53 AM,33.1,10.9,40,30.27,10.0,NW,12.7,18.4,N/A,,Clear,320,2013-01-20 15:53:00
11:53 AM,33.1,10.9,40,30.27,10.0,North,5.8,-,N/A,,Clear,350,2013-01-20 16:53:00
12:53 PM,35.1,14.0,42,30.24,10.0,Variable,5.8,-,N/A,,Clear,0,2013-01-20 17:53:00
1:53 PM,35.1,10.0,35,30.23,10.0,NW,9.2,-,N/A,,Clear,320,2013-01-20 18:53:00
2:53 PM,35.1,9.0,34,30.22,10.0,Variable,4.6,-,N/A,,Clear,0,2013-01-20 19:53:00
3:53 PM,36.0,12.0,37,30.21,10.0,West,9.2,-,N/A,,Clear,260,2013-01-20 20:53:00
4:53 PM,35.1,6.1,30,30.22,10.0,West,10.4,-,N/A,,Clear,270,2013-01-20 21:53:00
5:53 PM,33.1,8.1,35,30.25,10.0,NW,6.9,-,N/A,,Mostly Cloudy,310,2013-01-20 22:53:00
6:53 PM,33.1,10.9,40,30.25,10.0,WNW,4.6,-,N/A,,Overcast,300,2013-01-20 23:53:00
7:53 PM,30.9,10.9,43,30.24,10.0,NNW,5.8,-,N/A,,Overcast,330,2013-01-21 00:53:00
8:53 PM,30.9,12.0,46,30.23,10.0,Calm,Calm,-,N/A,,Overcast,0,2013-01-21 01:53:00
9:53 PM,28.0,12.9,53,30.23,10.0,NNW,8.1,-,N/A,,Mostly Cloudy,340,2013-01-21 02:53:00
10:53 PM,28.9,9.0,43,30.22,10.0,WNW,5.8,-,N/A,,Overcast,300,2013-01-21 03:53:00
11:53 PM,28.9,10.9,47,30.22,10.0,NW,5.8,-,N/A,,Overcast,310,2013-01-21 04:53:00